Time,TemperatureF,DewpointF,PressureIn,WindDirection,WindDirectionDegrees,WindSpeedMPH,WindSpeedGustMPH,Humidity,HourlyPrecipIn,Conditions,Clouds,dailyrainin,SoftwareType,DateUTC
2013-01-04 00:00:00,40.1,31.1,30.15,NE,34,0.0,3.0,70,0.00,,---,0.00,VWS V14.01,2013-01-04 06:00:00,
2013-01-04 00:02:00,40.1,30.8,30.15,NNE,31,0.0,3.0,69,0.00,,---,0.00,VWS V14.01,2013-01-04 06:02:00,
2013-01-04 00:07:00,40.1,31.1,30.16,North,11,1.0,3.0,70,0.00,,---,0.00,VWS V14.01,2013-01-04 06:07:00,
2013-01-04 00:12:00,40.1,30.8,30.16,NNE,12,1.0,3.0,69,0.00,,---,0.00,VWS V14.01,2013-01-04 06:12:00,
2013-01-04 00:15:00,40.2,30.9,30.16,NNE,15,0.0,3.0,69,0.00,,---,0.00,VWS V14.01,2013-01-04 06:15:00,
2013-01-04 00:17:00,40.2,30.9,30.16,North,360,0.0,2.0,69,0.00,,---,0.00,VWS V14.01,2013-01-04 06:17:00,
2013-01-04 00:22:00,40.2,30.9,30.16,NE,46,1.0,2.0,69,0.00,,---,0.00,VWS V14.01,2013-01-04 06:22:00,
2013-01-04 00:27:00,40.2,30.9,30.15,NE,51,0.0,2.0,69,0.00,,---,0.00,VWS V14.01,2013-01-04 06:27:00,
2013-01-04 00:30:00,40.2,31.2,30.15,NE,51,1.0,2.0,70,0.00,,---,0.00,VWS V14.01,2013-01-04 06:30:00,
2013-01-04 00:32:00,40.1,31.1,30.15,NE,51,0.0,1.0,70,0.00,,---,0.00,VWS V14.01,2013-01-04 06:32:00,
2013-01-04 00:37:00,40.1,30.8,30.15,East,99,0.0,2.0,69,0.00,,---,0.00,VWS V14.01,2013-01-04 06:37:00,
2013-01-04 00:42:00,40.1,31.1,30.15,East,90,0.0,2.0,70,0.00,,---,0.00,VWS V14.01,2013-01-04 06:42:00,
2013-01-04 00:45:00,40.1,31.1,30.15,East,90,0.0,2.0,70,0.00,,---,0.00,VWS V14.01,2013-01-04 06:45:00,
2013-01-04 00:47:00,40.1,31.5,30.15,East,90,0.0,2.0,71,0.00,,---,0.00,VWS V14.01,2013-01-04 06:47:00,
2013-01-04 00:52:00,40.0,31.4,30.16,North,5,2.0,2.0,71,0.00,,---,0.00,VWS V14.01,2013-01-04 06:52:00,
2013-01-04 00:57:00,40.0,31.4,30.18,NNW,339,1.0,2.0,71,0.00,,---,0.00,VWS V14.01,2013-01-04 06:57:00,
2013-01-04 01:00:00,39.9,31.3,30.18,NNW,339,0.0,2.0,71,0.00,,---,0.00,VWS V14.01,2013-01-04 07:00:00,
2013-01-04 01:02:00,39.9,31.6,30.18,NNW,339,0.0,0.0,72,0.00,,---,0.00,VWS V14.01,2013-01-04 07:02:00,
2013-01-04 01:07:00,39.8,31.5,30.17,NNW,339,0.0,1.0,72,0.00,,---,0.00,VWS V14.01,2013-01-04 07:07:00,
2013-01-04 01:12:00,39.6,31.7,30.17,NNW,339,2.0,2.0,73,0.00,,---,0.00,VWS V14.01,2013-01-04 07:12:00,
2013-01-04 01:15:00,39.5,31.6,30.17,NNW,339,0.0,2.0,73,0.00,,---,0.00,VWS V14.01,2013-01-04 07:15:00,
2013-01-04 01:17:00,39.5,31.9,30.17,NNW,339,0.0,1.0,74,0.00,,---,0.00,VWS V14.01,2013-01-04 07:17:00,
2013-01-04 01:22:00,39.3,31.7,30.17,NNW,340,1.0,3.0,74,0.00,,---,0.00,VWS V14.01,2013-01-04 07:22:00,
2013-01-04 01:27:00,39.1,31.9,30.17,North,355,1.0,3.0,75,0.00,,---,0.00,VWS V14.01,2013-01-04 07:27:00,
2013-01-04 01:30:00,39.1,31.9,30.18,North,349,1.0,3.0,75,0.00,,---,0.00,VWS V14.01,2013-01-04 07:30:00,
2013-01-04 01:32:00,39.1,31.9,30.18,North,349,1.0,2.0,75,0.00,,---,0.00,VWS V14.01,2013-01-04 07:32:00,
2013-01-04 01:37:00,39.1,31.5,30.18,North,349,0.0,2.0,74,0.00,,---,0.00,VWS V14.01,2013-01-04 07:37:00,
2013-01-04 01:42:00,39.1,31.9,30.18,North,349,0.0,2.0,75,0.00,,---,0.00,VWS V14.01,2013-01-04 07:42:00,
2013-01-04 01:45:00,39.1,31.9,30.18,North,349,0.0,2.0,75,0.00,,---,0.00,VWS V14.01,2013-01-04 07:45:00,
2013-01-04 01:47:00,39.0,31.8,30.18,North,349,0.0,0.0,75,0.00,,---,0.00,VWS V14.01,2013-01-04 07:47:00,
2013-01-04 01:52:00,39.0,32.1,30.19,North,349,0.0,1.0,76,0.00,,---,0.00,VWS V14.01,2013-01-04 07:52:00,
2013-01-04 01:57:00,38.9,32.0,30.19,WNW,290,0.0,2.0,76,0.00,,---,0.00,VWS V14.01,2013-01-04 07:57:00,
2013-01-04 02:00:00,38.9,32.6,30.20,NW,315,1.0,2.0,78,0.00,,---,0.00,VWS V14.01,2013-01-04 08:00:00,
2013-01-04 02:02:00,38.8,32.2,30.20,NW,319,1.0,2.0,77,0.00,,---,0.00,VWS V14.01,2013-01-04 08:02:00,
2013-01-04 02:07:00,38.1,32.2,30.19,East,92,2.0,7.0,79,0.00,,---,0.00,VWS V14.01,2013-01-04 08:07:00,
2013-01-04 02:12:00,37.3,32.3,30.19,ENE,75,4.0,7.0,82,0.00,,---,0.00,VWS V14.01,2013-01-04 08:12:00,
2013-01-04 02:15:00,36.8,32.4,30.20,NNE,19,0.0,7.0,84,0.00,,---,0.00,VWS V14.01,2013-01-04 08:15:00,
2013-01-04 02:17:00,36.4,32.3,30.20,NNE,13,6.0,6.0,85,0.00,,---,0.00,VWS V14.01,2013-01-04 08:17:00,
2013-01-04 02:22:00,35.9,32.1,30.20,NE,56,2.0,6.0,86,0.00,,---,0.00,VWS V14.01,2013-01-04 08:22:00,
2013-01-04 02:27:00,35.6,32.1,30.19,NNW,340,3.0,6.0,87,0.00,,---,0.00,VWS V14.01,2013-01-04 08:27:00,
2013-01-04 02:30:00,35.5,32.3,30.19,NE,54,4.0,6.0,88,0.00,,---,0.00,VWS V14.01,2013-01-04 08:30:00,
2013-01-04 02:32:00,35.3,32.1,30.19,NNE,25,2.0,9.0,88,0.00,,---,0.00,VWS V14.01,2013-01-04 08:32:00,
2013-01-04 02:37:00,35.1,32.2,30.19,NW,309,3.0,9.0,89,0.00,,---,0.00,VWS V14.01,2013-01-04 08:37:00,
2013-01-04 02:42:00,34.8,31.9,30.20,North,351,2.0,9.0,89,0.00,,---,0.00,VWS V14.01,2013-01-04 08:42:00,
2013-01-04 02:45:00,34.6,32.0,30.20,NNE,27,1.0,9.0,90,0.00,,---,0.00,VWS V14.01,2013-01-04 08:45:00,
2013-01-04 02:47:00,34.5,31.9,30.20,NNW,336,1.0,2.0,90,0.00,,---,0.00,VWS V14.01,2013-01-04 08:47:00,
2013-01-04 02:52:00,34.3,32.0,30.21,North,355,2.0,5.0,91,0.00,,---,0.00,VWS V14.01,2013-01-04 08:52:00,
2013-01-04 02:57:00,34.2,31.9,30.20,NW,326,1.0,5.0,91,0.00,,---,0.00,VWS V14.01,2013-01-04 08:57:00,
2013-01-04 03:00:00,34.1,31.8,30.20,NNW,338,2.0,5.0,91,0.00,,---,0.00,VWS V14.01,2013-01-04 09:00:00,
2013-01-04 03:02:00,34.1,31.8,30.20,NNW,340,1.0,3.0,91,0.00,,---,0.00,VWS V14.01,2013-01-04 09:02:00,
2013-01-04 03:07:00,34.0,31.9,30.22,NNW,336,1.0,3.0,92,0.00,,---,0.00,VWS V14.01,2013-01-04 09:07:00,
2013-01-04 03:12:00,34.0,31.9,30.22,NNW,333,2.0,4.0,92,0.00,,---,0.00,VWS V14.01,2013-01-04 09:12:00,
2013-01-04 03:15:00,34.0,31.9,30.22,NW,307,1.0,4.0,92,0.00,,---,0.00,VWS V14.01,2013-01-04 09:15:00,
2013-01-04 03:17:00,33.9,31.8,30.22,NW,317,2.0,3.0,92,0.00,,---,0.00,VWS V14.01,2013-01-04 09:17:00,
2013-01-04 03:22:00,33.9,31.8,30.21,North,355,2.0,3.0,92,0.00,,---,0.00,VWS V14.01,2013-01-04 09:22:00,
2013-01-04 03:27:00,33.9,31.8,30.19,NE,36,1.0,3.0,92,0.00,,---,0.00,VWS V14.01,2013-01-04 09:27:00,
2013-01-04 03:30:00,33.9,31.8,30.20,North,350,1.0,3.0,92,0.00,,---,0.00,VWS V14.01,2013-01-04 09:30:00,
2013-01-04 03:32:00,33.9,32.1,30.21,NNW,348,1.0,3.0,93,0.00,,---,0.00,VWS V14.01,2013-01-04 09:32:00,
2013-01-04 03:37:00,33.9,32.1,30.20,North,360,1.0,3.0,93,0.00,,---,0.00,VWS V14.01,2013-01-04 09:37:00,
2013-01-04 03:42:00,33.9,32.1,30.20,North,5,0.0,3.0,93,0.00,,---,0.00,VWS V14.01,2013-01-04 09:42:00,
2013-01-04 03:45:00,33.9,32.1,30.21,North,355,0.0,3.0,93,0.00,,---,0.00,VWS V14.01,2013-01-04 09:45:00,
2013-01-04 03:47:00,33.9,32.1,30.21,NNE,15,1.0,2.0,93,0.00,,---,0.00,VWS V14.01,2013-01-04 09:47:00,
2013-01-04 03:52:00,33.9,32.1,30.21,NNW,348,1.0,2.0,93,0.00,,---,0.00,VWS V14.01,2013-01-04 09:52:00,
2013-01-04 03:57:00,33.9,32.1,30.22,NNW,340,0.0,2.0,93,0.00,,---,0.00,VWS V14.01,2013-01-04 09:57:00,
2013-01-04 04:00:00,33.9,32.1,30.21,North,350,0.0,2.0,93,0.00,,---,0.00,VWS V14.01,2013-01-04 10:00:00,
2013-01-04 04:02:00,33.9,32.1,30.20,North,350,0.0,1.0,93,0.00,,---,0.00,VWS V14.01,2013-01-04 10:02:00,
2013-01-04 04:07:00,33.9,32.1,30.20,North,355,0.0,2.0,93,0.00,,---,0.00,VWS V14.01,2013-01-04 10:07:00,
2013-01-04 04:12:00,33.9,32.1,30.21,North,355,1.0,2.0,93,0.00,,---,0.00,VWS V14.01,2013-01-04 10:12:00,
2013-01-04 04:15:00,33.8,32.0,30.21,NNW,328,0.0,2.0,93,0.00,,---,0.00,VWS V14.01,2013-01-04 10:15:00,
2013-01-04 04:17:00,33.9,32.1,30.21,NNW,339,0.0,2.0,93,0.00,,---,0.00,VWS V14.01,2013-01-04 10:17:00,
2013-01-04 04:22:00,33.9,32.1,30.21,NNW,346,0.0,2.0,93,0.00,,---,0.00,VWS V14.01,2013-01-04 10:22:00,
2013-01-04 04:27:00,33.9,32.1,30.21,NNW,346,0.0,2.0,93,0.00,,---,0.00,VWS V14.01,2013-01-04 10:27:00,
2013-01-04 04:30:00,33.9,32.1,30.21,NNW,346,0.0,2.0,93,0.00,,---,0.00,VWS V14.01,2013-01-04 10:30:00,
2013-01-04 04:32:00,33.9,32.1,30.21,NNW,346,0.0,0.0,93,0.00,,---,0.00,VWS V14.01,2013-01-04 10:32:00,
2013-01-04 04:37:00,33.9,32.1,30.21,NNW,346,0.0,0.0,93,0.00,,---,0.00,VWS V14.01,2013-01-04 10:37:00,
2013-01-04 04:42:00,33.9,32.1,30.22,NNW,346,0.0,0.0,93,0.00,,---,0.00,VWS V14.01,2013-01-04 10:42:00,
2013-01-04 04:45:00,33.9,32.1,30.22,NNW,346,0.0,0.0,93,0.00,,---,0.00,VWS V14.01,2013-01-04 10:45:00,
2013-01-04 04:47:00,33.9,32.1,30.22,NNW,346,0.0,0.0,93,0.00,,---,0.00,VWS V14.01,2013-01-04 10:47:00,
2013-01-04 04:52:00,33.8,32.0,30.21,NNW,340,1.0,3.0,93,0.00,,---,0.00,VWS V14.01,2013-01-04 10:52:00,
2013-01-04 04:57:00,33.8,32.0,30.20,NE,43,1.0,3.0,93,0.00,,---,0.00,VWS V14.01,2013-01-04 10:57:00,
2013-01-04 05:00:00,33.8,32.3,30.20,NE,47,1.0,3.0,94,0.00,,---,0.00,VWS V14.01,2013-01-04 11:00:00,
2013-01-04 05:02:00,33.8,32.3,30.20,NNE,30,1.0,3.0,94,0.00,,---,0.00,VWS V14.01,2013-01-04 11:02:00,
2013-01-04 05:08:00,33.9,32.1,30.20,NNE,23,4.0,4.0,93,0.00,,---,0.00,VWS V14.01,2013-01-04 11:08:00,
2013-01-04 05:12:00,33.9,32.4,30.20,NNE,18,0.0,4.0,94,0.00,,---,0.00,VWS V14.01,2013-01-04 11:12:00,
2013-01-04 05:15:00,33.9,32.4,30.21,ENE,57,1.0,4.0,94,0.00,,---,0.00,VWS V14.01,2013-01-04 11:15:00,
2013-01-04 05:17:00,33.9,32.4,30.21,NNE,33,2.0,3.0,94,0.00,,---,0.00,VWS V14.01,2013-01-04 11:17:00,
2013-01-04 05:22:00,33.9,32.4,30.19,NE,41,1.0,3.0,94,0.00,,---,0.00,VWS V14.01,2013-01-04 11:22:00,
2013-01-04 05:27:00,33.8,32.3,30.20,NNE,28,2.0,5.0,94,0.00,,---,0.00,VWS V14.01,2013-01-04 11:27:00,
2013-01-04 05:30:00,33.8,32.3,30.20,NNE,14,1.0,5.0,94,0.00,,---,0.00,VWS V14.01,2013-01-04 11:30:00,
2013-01-04 05:32:00,33.8,32.3,30.21,NNW,348,0.0,2.0,94,0.00,,---,0.00,VWS V14.01,2013-01-04 11:32:00,
2013-01-04 05:37:00,33.8,32.3,30.21,ESE,119,0.0,3.0,94,0.00,,---,0.00,VWS V14.01,2013-01-04 11:37:00,
2013-01-04 05:42:00,33.8,32.3,30.21,ENE,64,0.0,3.0,94,0.00,,---,0.00,VWS V14.01,2013-01-04 11:42:00,
2013-01-04 05:45:00,33.8,32.3,30.21,ENE,78,0.0,3.0,94,0.00,,---,0.00,VWS V14.01,2013-01-04 11:45:00,
2013-01-04 05:47:00,33.8,32.3,30.21,NE,55,0.0,2.0,94,0.00,,---,0.00,VWS V14.01,2013-01-04 11:47:00,
2013-01-04 05:53:00,33.7,32.2,30.20,NNE,22,1.0,3.0,94,0.00,,---,0.00,VWS V14.01,2013-01-04 11:53:00,
2013-01-04 05:57:00,33.7,32.2,30.20,NNE,23,1.0,5.0,94,0.00,,---,0.00,VWS V14.01,2013-01-04 11:57:00,
2013-01-04 06:00:00,33.7,32.2,30.20,NE,55,0.0,5.0,94,0.00,,---,0.00,VWS V14.01,2013-01-04 12:00:00,
2013-01-04 06:03:00,33.7,32.2,30.20,ENE,77,1.0,3.0,94,0.00,,---,0.00,VWS V14.01,2013-01-04 12:03:00,
2013-01-04 06:08:00,33.7,32.2,30.21,ENE,71,0.0,3.0,94,0.00,,---,0.00,VWS V14.01,2013-01-04 12:08:00,
2013-01-04 06:12:00,33.7,32.2,30.21,NNE,28,0.0,3.0,94,0.00,,---,0.00,VWS V14.01,2013-01-04 12:12:00,
2013-01-04 06:15:00,33.7,32.2,30.21,NE,42,0.0,3.0,94,0.00,,---,0.00,VWS V14.01,2013-01-04 12:15:00,
2013-01-04 06:18:00,33.7,32.2,30.21,NNE,33,0.0,4.0,94,0.00,,---,0.00,VWS V14.01,2013-01-04 12:18:00,
2013-01-04 06:22:00,33.7,32.2,30.22,North,355,0.0,4.0,94,0.00,,---,0.00,VWS V14.01,2013-01-04 12:22:00,
2013-01-04 06:27:00,33.7,32.2,30.21,North,355,0.0,4.0,94,0.00,,---,0.00,VWS V14.01,2013-01-04 12:27:00,
2013-01-04 06:30:00,33.7,32.2,30.21,North,355,0.0,4.0,94,0.00,,---,0.00,VWS V14.01,2013-01-04 12:30:00,
2013-01-04 06:32:00,33.7,32.2,30.22,North,355,0.0,1.0,94,0.00,,---,0.00,VWS V14.01,2013-01-04 12:32:00,
2013-01-04 06:38:00,33.7,32.2,30.21,North,355,0.0,1.0,94,0.00,,---,0.00,VWS V14.01,2013-01-04 12:38:00,
2013-01-04 06:42:00,33.7,32.2,30.21,NE,49,1.0,1.0,94,0.00,,---,0.00,VWS V14.01,2013-01-04 12:42:00,
2013-01-04 06:45:00,33.7,32.2,30.21,NE,50,0.0,1.0,94,0.00,,---,0.00,VWS V14.01,2013-01-04 12:45:00,
2013-01-04 06:47:00,33.7,32.2,30.22,NE,50,0.0,0.0,94,0.00,,---,0.00,VWS V14.01,2013-01-04 12:47:00,
2013-01-04 06:52:00,33.7,32.2,30.22,NE,49,0.0,1.0,94,0.00,,---,0.00,VWS V14.01,2013-01-04 12:52:00,
2013-01-04 06:57:00,33.7,32.2,30.23,NE,50,0.0,2.0,94,0.00,,---,0.00,VWS V14.01,2013-01-04 12:57:00,
2013-01-04 07:00:00,33.7,32.2,30.23,NE,50,0.0,2.0,94,0.00,,---,0.00,VWS V14.01,2013-01-04 13:00:00,
2013-01-04 07:02:00,33.7,32.2,30.23,NE,50,0.0,0.0,94,0.00,,---,0.00,VWS V14.01,2013-01-04 13:02:00,
2013-01-04 07:07:00,33.7,32.2,30.22,NE,50,0.0,0.0,94,0.00,,---,0.00,VWS V14.01,2013-01-04 13:07:00,
2013-01-04 07:12:00,33.7,32.2,30.22,NE,50,0.0,1.0,94,0.00,,---,0.00,VWS V14.01,2013-01-04 13:12:00,
2013-01-04 07:15:00,33.7,32.2,30.22,NE,50,0.0,1.0,94,0.00,,---,0.00,VWS V14.01,2013-01-04 13:15:00,
2013-01-04 07:17:00,33.7,32.2,30.23,NE,50,0.0,1.0,94,0.00,,---,0.00,VWS V14.01,2013-01-04 13:17:00,
2013-01-04 07:23:00,33.7,32.2,30.22,NE,50,0.0,1.0,94,0.00,,---,0.00,VWS V14.01,2013-01-04 13:23:00,
2013-01-04 07:30:00,33.7,32.2,30.22,ENE,68,0.0,2.0,94,0.00,,---,0.00,VWS V14.01,2013-01-04 13:30:00,
2013-01-04 07:45:00,33.7,32.2,30.22,ENE,68,0.0,2.0,94,0.00,,---,0.00,VWS V14.01,2013-01-04 13:45:00,
2013-01-04 08:00:00,33.8,32.3,30.23,ENE,68,0.0,2.0,94,0.00,,---,0.00,VWS V14.01,2013-01-04 14:00:00,
2013-01-04 08:15:00,33.8,32.3,30.24,North,0,0.0,1.0,94,0.00,,---,0.00,VWS V14.01,2013-01-04 14:15:00,
2013-01-04 08:30:00,33.8,32.3,30.24,North,0,0.0,2.0,94,0.00,,---,0.00,VWS V14.01,2013-01-04 14:30:00,
2013-01-04 08:45:00,33.9,32.4,30.24,NE,45,0.0,2.0,94,0.00,,---,0.00,VWS V14.01,2013-01-04 14:45:00,
2013-01-04 09:00:00,34.0,32.5,30.24,ENE,68,0.0,2.0,94,0.00,,---,0.00,VWS V14.01,2013-01-04 15:00:00,
2013-01-04 09:15:00,34.0,32.5,30.24,ENE,68,0.0,2.0,94,0.00,,---,0.00,VWS V14.01,2013-01-04 15:15:00,
2013-01-04 09:30:00,34.1,32.6,30.25,ENE,68,0.0,0.0,94,0.00,,---,0.00,VWS V14.01,2013-01-04 15:30:00,
2013-01-04 09:45:00,34.4,32.9,30.26,ENE,68,0.0,0.0,94,0.00,,---,0.00,VWS V14.01,2013-01-04 15:45:00,
2013-01-04 10:00:00,34.6,33.0,30.25,ENE,68,0.0,0.0,94,0.00,,---,0.00,VWS V14.01,2013-01-04 16:00:00,
2013-01-04 10:15:00,34.8,33.2,30.25,ENE,68,0.0,3.0,94,0.00,,---,0.00,VWS V14.01,2013-01-04 16:15:00,
2013-01-04 10:30:00,35.3,33.8,30.25,ENE,68,1.0,3.0,94,0.00,,---,0.00,VWS V14.01,2013-01-04 16:30:00,
2013-01-04 10:45:00,35.2,33.7,30.25,East,90,1.0,3.0,94,0.02,,---,0.02,VWS V14.01,2013-01-04 16:45:00,
2013-01-04 11:00:00,35.3,33.8,30.24,NE,45,1.0,3.0,94,0.02,,---,0.02,VWS V14.01,2013-01-04 17:00:00,
2013-01-04 11:15:00,35.6,34.0,30.23,East,90,0.0,2.0,94,0.04,,---,0.04,VWS V14.01,2013-01-04 17:15:00,
2013-01-04 11:30:00,36.1,34.5,30.24,ENE,68,0.0,3.0,94,0.05,,---,0.05,VWS V14.01,2013-01-04 17:30:00,
2013-01-04 11:45:00,36.1,34.5,30.23,East,90,0.0,5.0,94,0.06,,---,0.06,VWS V14.01,2013-01-04 17:45:00,
2013-01-04 12:00:00,36.2,34.6,30.22,ESE,112,1.0,5.0,94,0.04,,---,0.06,VWS V14.01,2013-01-04 18:00:00,
2013-01-04 12:20:00,36.7,35.1,30.20,East,99,0.0,1.0,94,0.06,,---,0.08,VWS V14.01,2013-01-04 18:20:00,
2013-01-04 12:25:00,36.9,35.3,30.20,ESE,105,1.0,3.0,94,0.07,,---,0.09,VWS V14.01,2013-01-04 18:25:00,
2013-01-04 12:30:00,37.1,35.5,30.19,ESE,116,0.0,0.0,94,0.05,,---,0.10,VWS V14.01,2013-01-04 18:30:00,
2013-01-04 12:35:00,37.3,35.7,30.19,East,86,1.0,3.0,94,0.05,,---,0.10,VWS V14.01,2013-01-04 18:35:00,
2013-01-04 12:40:00,37.3,35.7,30.18,ESE,118,2.0,5.0,94,0.05,,---,0.10,VWS V14.01,2013-01-04 18:40:00,
2013-01-04 12:45:00,37.3,35.7,30.18,ESE,112,1.0,1.0,94,0.05,,---,0.11,VWS V14.01,2013-01-04 18:45:00,
2013-01-04 12:50:00,37.5,35.9,30.18,ESE,102,1.0,2.0,94,0.06,,---,0.12,VWS V14.01,2013-01-04 18:50:00,
2013-01-04 12:55:00,37.5,35.9,30.18,ENE,63,2.0,3.0,94,0.06,,---,0.12,VWS V14.01,2013-01-04 18:55:00,
2013-01-04 13:00:00,37.6,36.0,30.18,ENE,63,1.0,1.0,94,0.06,,---,0.12,VWS V14.01,2013-01-04 19:00:00,
2013-01-04 13:05:00,37.6,36.0,30.17,East,96,0.0,4.0,94,0.06,,---,0.12,VWS V14.01,2013-01-04 19:05:00,
2013-01-04 13:10:00,37.5,35.7,30.17,ENE,64,1.0,4.0,93,0.07,,---,0.13,VWS V14.01,2013-01-04 19:10:00,
2013-01-04 13:15:00,37.6,35.8,30.17,ESE,109,2.0,2.0,93,0.03,,---,0.13,VWS V14.01,2013-01-04 19:15:00,
2013-01-04 13:20:00,37.6,35.8,30.17,NE,51,0.0,2.0,93,0.04,,---,0.14,VWS V14.01,2013-01-04 19:20:00,
2013-01-04 13:25:00,37.7,35.9,30.17,NE,42,0.0,2.0,93,0.04,,---,0.14,VWS V14.01,2013-01-04 19:25:00,
2013-01-04 13:30:00,37.7,36.1,30.16,NE,49,0.0,0.0,94,0.04,,---,0.14,VWS V14.01,2013-01-04 19:30:00,
2013-01-04 13:35:00,37.9,36.3,30.16,East,96,1.0,2.0,94,0.04,,---,0.14,VWS V14.01,2013-01-04 19:35:00,
2013-01-04 13:40:00,37.9,36.3,30.15,East,92,1.0,2.0,94,0.05,,---,0.15,VWS V14.01,2013-01-04 19:40:00,
2013-01-04 13:45:00,37.9,36.3,30.14,ENE,74,1.0,1.0,94,0.04,,---,0.15,VWS V14.01,2013-01-04 19:45:00,
2013-01-04 13:50:00,38.0,36.4,30.14,East,86,0.0,2.0,94,0.05,,---,0.16,VWS V14.01,2013-01-04 19:50:00,
2013-01-04 13:55:00,38.2,36.6,30.14,ESE,115,0.0,5.0,94,0.05,,---,0.16,VWS V14.01,2013-01-04 19:55:00,
2013-01-04 14:00:00,38.2,36.6,30.14,East,99,2.0,3.0,94,0.04,,---,0.16,VWS V14.01,2013-01-04 20:00:00,
2013-01-04 14:05:00,38.2,36.6,30.14,ESE,106,0.0,3.0,94,0.04,,---,0.16,VWS V14.01,2013-01-04 20:05:00,
2013-01-04 14:10:00,38.3,36.7,30.14,ESE,106,0.0,3.0,94,0.04,,---,0.16,VWS V14.01,2013-01-04 20:10:00,
2013-01-04 14:15:00,38.4,36.8,30.14,ESE,106,0.0,0.0,94,0.04,,---,0.17,VWS V14.01,2013-01-04 20:15:00,
2013-01-04 14:20:00,38.4,36.8,30.14,ESE,106,0.0,1.0,94,0.04,,---,0.17,VWS V14.01,2013-01-04 20:20:00,
2013-01-04 14:25:00,38.4,36.6,30.13,ESE,106,0.0,2.0,93,0.04,,---,0.17,VWS V14.01,2013-01-04 20:25:00,
2013-01-04 14:30:00,38.5,36.7,30.13,ENE,71,1.0,1.0,93,0.04,,---,0.18,VWS V14.01,2013-01-04 20:30:00,
2013-01-04 14:35:00,38.6,36.8,30.13,ENE,70,0.0,2.0,93,0.04,,---,0.18,VWS V14.01,2013-01-04 20:35:00,
2013-01-04 14:40:00,38.6,36.8,30.13,SE,125,0.0,2.0,93,0.04,,---,0.18,VWS V14.01,2013-01-04 20:40:00,
2013-01-04 14:45:00,38.6,36.8,30.13,SE,125,0.0,0.0,93,0.03,,---,0.18,VWS V14.01,2013-01-04 20:45:00,
2013-01-04 14:50:00,38.5,36.7,30.13,East,94,2.0,2.0,93,0.03,,---,0.18,VWS V14.01,2013-01-04 20:50:00,
2013-01-04 14:55:00,38.6,36.8,30.13,East,84,0.0,2.0,93,0.03,,---,0.18,VWS V14.01,2013-01-04 20:55:00,
2013-01-04 15:00:00,38.7,36.8,30.13,ESE,113,0.0,0.0,93,0.02,,---,0.18,VWS V14.01,2013-01-04 21:00:00,
2013-01-04 15:05:00,38.6,36.8,30.13,ESE,113,0.0,1.0,93,0.02,,---,0.18,VWS V14.01,2013-01-04 21:05:00,
2013-01-04 15:10:00,38.6,36.8,30.14,ESE,113,0.0,1.0,93,0.03,,---,0.19,VWS V14.01,2013-01-04 21:10:00,
2013-01-04 15:15:00,38.6,36.8,30.13,ESE,111,0.0,1.0,93,0.02,,---,0.19,VWS V14.01,2013-01-04 21:15:00,
2013-01-04 15:20:00,38.6,36.8,30.13,ESE,111,1.0,1.0,93,0.02,,---,0.19,VWS V14.01,2013-01-04 21:20:00,
2013-01-04 15:25:00,38.6,36.8,30.12,ESE,111,0.0,1.0,93,0.03,,---,0.20,VWS V14.01,2013-01-04 21:25:00,
2013-01-04 15:30:00,38.6,36.8,30.12,ESE,111,0.0,0.0,93,0.02,,---,0.20,VWS V14.01,2013-01-04 21:30:00,
2013-01-04 15:35:00,38.6,36.8,30.12,East,101,0.0,2.0,93,0.02,,---,0.20,VWS V14.01,2013-01-04 21:35:00,
2013-01-04 15:40:00,38.6,36.8,30.12,ESE,105,0.0,2.0,93,0.02,,---,0.20,VWS V14.01,2013-01-04 21:40:00,
2013-01-04 15:45:00,38.7,36.8,30.12,NNE,30,0.0,0.0,93,0.02,,---,0.20,VWS V14.01,2013-01-04 21:45:00,
2013-01-04 15:50:00,38.8,37.0,30.12,SE,130,0.0,2.0,93,0.03,,---,0.21,VWS V14.01,2013-01-04 21:50:00,
2013-01-04 15:55:00,38.7,36.8,30.12,SE,130,0.0,2.0,93,0.03,,---,0.21,VWS V14.01,2013-01-04 21:55:00,
2013-01-04 16:00:00,38.7,36.8,30.12,East,88,0.0,0.0,93,0.03,,---,0.21,VWS V14.01,2013-01-04 22:00:00,
2013-01-04 16:05:00,38.6,36.8,30.12,East,88,0.0,0.0,93,0.03,,---,0.21,VWS V14.01,2013-01-04 22:05:00,
2013-01-04 16:10:00,38.7,36.8,30.13,East,88,0.0,0.0,93,0.03,,---,0.21,VWS V14.01,2013-01-04 22:10:00,
2013-01-04 16:15:00,38.7,36.8,30.13,East,88,0.0,0.0,93,0.03,,---,0.22,VWS V14.01,2013-01-04 22:15:00,
2013-01-04 16:20:00,38.7,36.8,30.13,East,88,0.0,0.0,93,0.03,,---,0.22,VWS V14.01,2013-01-04 22:20:00,
2013-01-04 16:25:00,38.6,36.8,30.13,East,88,0.0,0.0,93,0.03,,---,0.22,VWS V14.01,2013-01-04 22:25:00,
2013-01-04 16:30:00,38.6,36.8,30.13,East,88,0.0,0.0,93,0.02,,---,0.22,VWS V14.01,2013-01-04 22:30:00,
2013-01-04 16:35:00,38.6,36.8,30.13,East,88,0.0,0.0,93,0.02,,---,0.22,VWS V14.01,2013-01-04 22:35:00,
2013-01-04 16:40:00,38.6,36.8,30.13,East,88,0.0,0.0,93,0.02,,---,0.22,VWS V14.01,2013-01-04 22:40:00,
2013-01-04 16:45:00,38.6,36.8,30.13,East,88,0.0,0.0,93,0.02,,---,0.22,VWS V14.01,2013-01-04 22:45:00,
2013-01-04 16:50:00,38.7,37.1,30.13,East,88,0.0,0.0,94,0.02,,---,0.22,VWS V14.01,2013-01-04 22:50:00,
2013-01-04 16:55:00,38.7,36.8,30.13,East,88,0.0,0.0,93,0.02,,---,0.22,VWS V14.01,2013-01-04 22:55:00,
2013-01-04 17:00:00,38.8,37.2,30.13,East,88,0.0,0.0,94,0.01,,---,0.22,VWS V14.01,2013-01-04 23:00:00,
2013-01-04 17:05:00,38.9,37.3,30.13,East,88,0.0,0.0,94,0.01,,---,0.22,VWS V14.01,2013-01-04 23:05:00,
2013-01-04 17:10:00,38.9,37.3,30.13,East,88,0.0,0.0,94,0.01,,---,0.22,VWS V14.01,2013-01-04 23:10:00,
2013-01-04 17:15:00,38.8,37.0,30.14,East,88,0.0,0.0,93,0.01,,---,0.23,VWS V14.01,2013-01-04 23:15:00,
2013-01-04 17:20:00,38.8,37.0,30.13,East,88,0.0,0.0,93,0.02,,---,0.24,VWS V14.01,2013-01-04 23:20:00,
2013-01-04 17:25:00,38.7,36.8,30.14,East,88,0.0,0.0,93,0.03,,---,0.25,VWS V14.01,2013-01-04 23:25:00,
2013-01-04 17:30:00,38.7,36.8,30.14,East,88,0.0,0.0,93,0.03,,---,0.25,VWS V14.01,2013-01-04 23:30:00,
2013-01-04 17:35:00,38.6,36.8,30.14,East,88,0.0,0.0,93,0.03,,---,0.25,VWS V14.01,2013-01-04 23:35:00,
2013-01-04 17:40:00,38.6,36.8,30.14,East,88,0.0,0.0,93,0.03,,---,0.25,VWS V14.01,2013-01-04 23:40:00,
2013-01-04 17:45:00,38.5,36.9,30.14,East,88,0.0,0.0,94,0.03,,---,0.25,VWS V14.01,2013-01-04 23:45:00,
2013-01-04 17:50:00,38.5,36.9,30.14,East,88,0.0,0.0,94,0.03,,---,0.25,VWS V14.01,2013-01-04 23:50:00,
2013-01-04 17:55:00,38.5,36.9,30.14,East,88,0.0,0.0,94,0.03,,---,0.25,VWS V14.01,2013-01-04 23:55:00,
2013-01-04 18:00:00,38.5,36.9,30.14,East,88,0.0,0.0,94,0.04,,---,0.26,VWS V14.01,2013-01-05 00:00:00,
2013-01-04 18:05:00,38.4,36.8,30.14,East,88,0.0,0.0,94,0.04,,---,0.26,VWS V14.01,2013-01-05 00:05:00,
2013-01-04 18:10:00,38.4,36.8,30.14,East,88,0.0,0.0,94,0.04,,---,0.26,VWS V14.01,2013-01-05 00:10:00,
2013-01-04 18:15:00,38.4,36.8,30.14,East,88,0.0,0.0,94,0.03,,---,0.26,VWS V14.01,2013-01-05 00:15:00,
2013-01-04 18:20:00,38.3,36.7,30.14,East,88,0.0,0.0,94,0.03,,---,0.26,VWS V14.01,2013-01-05 00:20:00,
2013-01-04 18:25:00,38.3,36.7,30.14,East,88,0.0,0.0,94,0.03,,---,0.26,VWS V14.01,2013-01-05 00:25:00,
2013-01-04 18:30:00,38.2,36.6,30.14,East,88,0.0,0.0,94,0.01,,---,0.26,VWS V14.01,2013-01-05 00:30:00,
2013-01-04 18:35:00,38.1,36.3,30.14,East,88,0.0,0.0,93,0.01,,---,0.26,VWS V14.01,2013-01-05 00:35:00,
2013-01-04 18:40:00,38.0,36.2,30.14,ESE,110,0.0,1.0,93,0.01,,---,0.26,VWS V14.01,2013-01-05 00:40:00,
2013-01-04 18:45:00,37.9,36.1,30.14,ESE,110,0.0,0.0,93,0.01,,---,0.26,VWS V14.01,2013-01-05 00:45:00,
2013-01-04 18:50:00,37.7,35.9,30.14,ESE,110,0.0,0.0,93,0.01,,---,0.26,VWS V14.01,2013-01-05 00:50:00,
2013-01-04 18:55:00,37.7,35.9,30.14,ESE,110,0.0,0.0,93,0.01,,---,0.26,VWS V14.01,2013-01-05 00:55:00,
2013-01-04 19:00:00,37.7,35.9,30.14,ESE,110,0.0,0.0,93,0.00,,---,0.26,VWS V14.01,2013-01-05 01:00:00,
2013-01-04 19:05:00,37.6,35.8,30.14,ESE,110,0.0,0.0,93,0.00,,---,0.26,VWS V14.01,2013-01-05 01:05:00,
2013-01-04 19:10:00,37.6,35.8,30.14,ESE,110,0.0,0.0,93,0.00,,---,0.26,VWS V14.01,2013-01-05 01:10:00,
2013-01-04 19:15:00,37.6,36.0,30.14,ESE,110,0.0,0.0,94,0.00,,---,0.26,VWS V14.01,2013-01-05 01:15:00,
2013-01-04 19:20:00,37.6,36.0,30.15,ESE,110,0.0,0.0,94,0.00,,---,0.26,VWS V14.01,2013-01-05 01:20:00,
2013-01-04 19:25:00,37.6,36.0,30.15,ESE,110,0.0,0.0,94,0.00,,---,0.26,VWS V14.01,2013-01-05 01:25:00,
2013-01-04 19:30:00,37.7,36.1,30.15,ESE,110,0.0,0.0,94,0.00,,---,0.26,VWS V14.01,2013-01-05 01:30:00,
2013-01-04 19:35:00,37.7,36.1,30.15,ESE,110,0.0,0.0,94,0.00,,---,0.26,VWS V14.01,2013-01-05 01:35:00,
2013-01-04 19:40:00,37.7,36.1,30.15,ESE,110,0.0,0.0,94,0.00,,---,0.26,VWS V14.01,2013-01-05 01:40:00,
2013-01-04 19:45:00,37.7,36.1,30.15,ESE,110,0.0,0.0,94,0.00,,---,0.26,VWS V14.01,2013-01-05 01:45:00,
2013-01-04 19:50:00,37.7,36.1,30.15,ESE,110,0.0,0.0,94,0.00,,---,0.26,VWS V14.01,2013-01-05 01:50:00,
2013-01-04 19:55:00,37.8,36.2,30.15,ESE,110,0.0,0.0,94,0.00,,---,0.26,VWS V14.01,2013-01-05 01:55:00,
2013-01-04 20:00:00,37.8,36.2,30.16,ESE,110,0.0,0.0,94,0.00,,---,0.26,VWS V14.01,2013-01-05 02:00:00,
2013-01-04 20:05:00,37.8,36.2,30.16,ESE,110,0.0,0.0,94,0.00,,---,0.26,VWS V14.01,2013-01-05 02:05:00,
2013-01-04 20:10:00,37.8,36.2,30.16,ESE,110,0.0,0.0,94,0.00,,---,0.26,VWS V14.01,2013-01-05 02:10:00,
2013-01-04 20:15:00,37.9,36.3,30.16,ESE,110,0.0,0.0,94,0.00,,---,0.26,VWS V14.01,2013-01-05 02:15:00,
2013-01-04 20:21:00,37.9,36.3,30.16,ESE,110,0.0,0.0,94,0.01,,---,0.27,VWS V14.01,2013-01-05 02:21:00,
2013-01-04 20:26:00,37.8,36.2,30.16,ESE,110,0.0,0.0,94,0.01,,---,0.27,VWS V14.01,2013-01-05 02:26:00,
2013-01-04 20:31:00,37.9,36.3,30.16,ESE,110,0.0,0.0,94,0.01,,---,0.27,VWS V14.01,2013-01-05 02:31:00,
2013-01-04 20:36:00,37.9,36.3,30.16,ESE,110,0.0,0.0,94,0.01,,---,0.27,VWS V14.01,2013-01-05 02:36:00,
2013-01-04 20:41:00,37.9,36.3,30.15,ESE,110,0.0,0.0,94,0.01,,---,0.27,VWS V14.01,2013-01-05 02:41:00,
2013-01-04 20:46:00,37.9,36.3,30.16,ESE,110,0.0,0.0,94,0.02,,---,0.28,VWS V14.01,2013-01-05 02:46:00,
2013-01-04 20:51:00,38.0,36.4,30.16,ESE,110,0.0,0.0,94,0.02,,---,0.28,VWS V14.01,2013-01-05 02:51:00,
2013-01-04 20:56:00,37.9,36.3,30.16,ESE,110,0.0,0.0,94,0.02,,---,0.28,VWS V14.01,2013-01-05 02:56:00,
2013-01-04 21:01:00,38.0,36.4,30.16,ESE,110,0.0,0.0,94,0.02,,---,0.28,VWS V14.01,2013-01-05 03:01:00,
2013-01-04 21:06:00,38.0,36.4,30.16,ESE,110,0.0,0.0,94,0.02,,---,0.28,VWS V14.01,2013-01-05 03:06:00,
2013-01-04 21:11:00,38.0,36.4,30.16,ESE,110,0.0,0.0,94,0.03,,---,0.29,VWS V14.01,2013-01-05 03:11:00,
2013-01-04 21:16:00,38.0,36.4,30.16,ESE,110,0.0,0.0,94,0.03,,---,0.29,VWS V14.01,2013-01-05 03:16:00,
2013-01-04 21:21:00,38.0,36.4,30.16,ESE,110,0.0,0.0,94,0.04,,---,0.30,VWS V14.01,2013-01-05 03:21:00,
2013-01-04 21:26:00,38.0,36.4,30.16,ESE,109,0.0,0.0,94,0.04,,---,0.30,VWS V14.01,2013-01-05 03:26:00,
2013-01-04 21:31:00,38.0,36.4,30.16,ESE,109,0.0,0.0,94,0.03,,---,0.30,VWS V14.01,2013-01-05 03:31:00,
2013-01-04 21:36:00,38.0,36.4,30.16,ESE,109,0.0,1.0,94,0.03,,---,0.30,VWS V14.01,2013-01-05 03:36:00,
2013-01-04 21:41:00,38.0,36.4,30.16,ESE,109,0.0,1.0,94,0.03,,---,0.30,VWS V14.01,2013-01-05 03:41:00,
2013-01-04 21:46:00,38.0,36.4,30.16,ESE,109,0.0,0.0,94,0.02,,---,0.30,VWS V14.01,2013-01-05 03:46:00,
2013-01-04 21:51:00,38.0,36.4,30.16,ESE,109,0.0,0.0,94,0.02,,---,0.30,VWS V14.01,2013-01-05 03:51:00,
2013-01-04 21:56:00,38.0,36.4,30.15,ESE,109,0.0,0.0,94,0.02,,---,0.30,VWS V14.01,2013-01-05 03:56:00,
2013-01-04 22:01:00,38.0,36.4,30.15,ESE,109,0.0,0.0,94,0.02,,---,0.30,VWS V14.01,2013-01-05 04:01:00,
2013-01-04 22:06:00,38.0,36.4,30.15,ESE,109,0.0,0.0,94,0.02,,---,0.30,VWS V14.01,2013-01-05 04:06:00,
2013-01-04 22:11:00,38.0,36.4,30.15,ESE,109,0.0,0.0,94,0.02,,---,0.30,VWS V14.01,2013-01-05 04:11:00,
2013-01-04 22:16:00,38.0,36.4,30.15,ESE,109,0.0,0.0,94,0.01,,---,0.30,VWS V14.01,2013-01-05 04:16:00,
2013-01-04 22:21:00,38.0,36.4,30.15,ESE,109,0.0,1.0,94,0.01,,---,0.30,VWS V14.01,2013-01-05 04:21:00,
2013-01-04 22:26:00,38.0,36.4,30.15,ESE,109,0.0,1.0,94,0.01,,---,0.30,VWS V14.01,2013-01-05 04:26:00,
2013-01-04 22:31:00,38.0,36.4,30.15,ESE,116,1.0,2.0,94,0.00,,---,0.30,VWS V14.01,2013-01-05 04:31:00,
2013-01-04 22:36:00,38.0,36.4,30.15,ESE,116,0.0,2.0,94,0.00,,---,0.30,VWS V14.01,2013-01-05 04:36:00,
2013-01-04 22:41:00,38.0,36.4,30.15,ESE,110,0.0,2.0,94,0.00,,---,0.30,VWS V14.01,2013-01-05 04:41:00,
2013-01-04 22:46:00,37.9,36.3,30.15,ESE,110,0.0,0.0,94,0.01,,---,0.31,VWS V14.01,2013-01-05 04:46:00,
2013-01-04 22:51:00,37.9,36.3,30.15,ESE,110,0.0,0.0,94,0.01,,---,0.31,VWS V14.01,2013-01-05 04:51:00,
2013-01-04 22:56:00,37.9,36.3,30.14,ESE,110,0.0,0.0,94,0.02,,---,0.32,VWS V14.01,2013-01-05 04:56:00,
2013-01-04 23:00:00,37.9,36.3,30.14,ESE,110,0.0,0.0,94,0.02,,---,0.32,VWS V14.01,2013-01-05 05:00:00,
2013-01-04 23:05:00,38.0,36.4,30.14,ESE,110,0.0,0.0,94,0.02,,---,0.32,VWS V14.01,2013-01-05 05:05:00,
2013-01-04 23:10:00,38.0,36.4,30.14,ESE,110,0.0,0.0,94,0.02,,---,0.32,VWS V14.01,2013-01-05 05:10:00,
2013-01-04 23:15:00,38.1,36.5,30.14,ESE,110,0.0,0.0,94,0.02,,---,0.32,VWS V14.01,2013-01-05 05:15:00,
2013-01-04 23:20:00,38.1,36.5,30.13,ESE,110,0.0,0.0,94,0.02,,---,0.32,VWS V14.01,2013-01-05 05:20:00,
2013-01-04 23:25:00,38.2,36.6,30.14,ESE,110,0.0,0.0,94,0.02,,---,0.32,VWS V14.01,2013-01-05 05:25:00,
2013-01-04 23:30:00,38.2,36.6,30.14,ESE,110,0.0,0.0,94,0.02,,---,0.32,VWS V14.01,2013-01-05 05:30:00,
2013-01-04 23:35:00,38.2,36.6,30.14,NNW,336,0.0,0.0,94,0.02,,---,0.32,VWS V14.01,2013-01-05 05:35:00,
2013-01-04 23:40:00,38.2,36.6,30.13,NNW,336,0.0,0.0,94,0.02,,---,0.32,VWS V14.01,2013-01-05 05:40:00,
2013-01-04 23:45:00,38.2,36.6,30.14,NNW,336,0.0,0.0,94,0.02,,---,0.33,VWS V14.01,2013-01-05 05:45:00,
2013-01-04 23:50:00,38.2,36.9,30.13,NNW,333,0.0,0.0,95,0.02,,---,0.33,VWS V14.01,2013-01-05 05:50:00,
2013-01-04 23:55:00,38.3,37.0,30.13,NNW,333,0.0,0.0,95,0.02,,---,0.33,VWS V14.01,2013-01-05 05:55:00,